Location: Presov
(49.0000°N, 21.2500°E)
Time: 06:06:05
(UTC+02:00)

ISS - Pass Details

Date: 30 March 2019
Orbit: 408 x 410 km, 51.6° (Epoch: 23 April)

Event Time Altitude Azimuth Distance (km) Brightness Sun altitude
Rises 20:51:43 0° 290° (WNW) 2,339 1.1 -25.8°
Reaches altitude 10° 20:53:48 10° 289° (WNW) 1,475 -0.2 -26.1°
Enters shadow 20:55:11 23° 287° (WNW) 926 -1.4 -26.2°
